• In Lithuania
  • List of Countries
  • For 7 days
  • Water Temperature
  • Satellite Maps
  • Weather Map
  • Weather Widgets
  • user-avatar
    Login

    Hourly Weather Novoragulinskiy

    Today, 22 August, Wednesday

    Time Temperature Precipitation Wind Pressure Humidity
    00:00 +22°C° 0 mm 4 mps 755 mmHg 61%
    01:00 +22°C° 0 mm 4 mps 755 mmHg 66%
    02:00 +21°C° 0 mm 3 mps 755 mmHg 70%
    03:00 +21°C° 0 mm 3 mps 755 mmHg 75%
    04:00 +21°C° 0 mm 3 mps 755 mmHg 77%
    05:00 +20°C° 0 mm 3 mps 755 mmHg 79%
    06:00 +20°C° 0 mm 2 mps 755 mmHg 81%
    07:00 +22°C° 0 mm 3 mps 755 mmHg 73%
    08:00 +25°C° 0 mm 3 mps 755 mmHg 66%
    09:00 +27°C° 0 mm 3 mps 755 mmHg 59%
    10:00 +28°C° 0 mm 2 mps 755 mmHg 52%
    11:00 +29°C° 0 mm 1 mps 755 mmHg 45%
    12:00 +31°C° 0 mm 1 mps 755 mmHg 38%
    13:00 +32°C° 0 mm 1 mps 754 mmHg 35%
    14:00 +32°C° 0 mm 1 mps 754 mmHg 32%
    15:00 +33°C° 0 mm 1 mps 753 mmHg 29%
    16:00 +33°C° 0 mm 1 mps 753 mmHg 28%
    17:00 +34°C° 0 mm 2 mps 753 mmHg 28%
    18:00 +34°C° 0 mm 2 mps 753 mmHg 28%
    19:00 +31°C° 0 mm 2 mps 754 mmHg 30%
    20:00 +30°C° 0 mm 2 mps 754 mmHg 31%
    21:00 +28°C° 0 mm 2 mps 754 mmHg 33%
    22:00 +28°C° 0 mm 2 mps 755 mmHg 34%
    23:00 +27°C° 0 mm 2 mps 755 mmHg 35%

    Tomorrow, 23 August, Thursday

    Time Temperature Precipitation Wind Pressure Humidity
    00:00 +27°C° 0 mm 2 mps 755 mmHg 36%
    01:00 +26°C° 0 mm 3 mps 755 mmHg 40%
    02:00 +25°C° 0 mm 4 mps 756 mmHg 45%
    03:00 +23°C° 0 mm 5 mps 756 mmHg 50%
    04:00 +23°C° 0 mm 5 mps 756 mmHg 53%
    05:00 +22°C° 0 mm 5 mps 757 mmHg 55%
    06:00 +22°C° 0 mm 5 mps 757 mmHg 58%
    07:00 +23°C° 0 mm 5 mps 757 mmHg 52%
    08:00 +24°C° 0 mm 6 mps 758 mmHg 47%
    09:00 +27°C° 0 mm 6 mps 758 mmHg 41%
    10:00 +28°C° 0 mm 6 mps 758 mmHg 37%
    11:00 +29°C° 0 mm 6 mps 758 mmHg 33%
    12:00 +30°C° 0 mm 5 mps 758 mmHg 29%
    13:00 +30°C° 0 mm 5 mps 758 mmHg 27%
    14:00 +32°C° 0 mm 5 mps 758 mmHg 25%
    15:00 +32°C° 0 mm 5 mps 758 mmHg 23%
    16:00 +32°C° 0 mm 5 mps 758 mmHg 22%
    17:00 +30°C° 0 mm 5 mps 757 mmHg 21%
    18:00 +29°C° 0 mm 5 mps 757 mmHg 20%
    19:00 +28°C° 0 mm 5 mps 758 mmHg 21%
    20:00 +27°C° 0 mm 5 mps 758 mmHg 21%
    21:00 +25°C° 0 mm 4 mps 759 mmHg 21%
    22:00 +25°C° 0 mm 4 mps 759 mmHg 22%
    23:00 +23°C° 0 mm 4 mps 759 mmHg 23%

    Day after tomorrow, 24 August, Friday

    Time Temperature Precipitation Wind Pressure Humidity
    00:00 +23°C° 0 mm 5 mps 759 mmHg 25%
    01:00 +22°C° 0 mm 5 mps 759 mmHg 27%
    02:00 +22°C° 0 mm 5 mps 759 mmHg 28%
    03:00 +21°C° 0 mm 5 mps 758 mmHg 30%
    04:00 +21°C° 0 mm 5 mps 759 mmHg 32%
    05:00 +21°C° 0 mm 5 mps 759 mmHg 34%
    06:00 +20°C° 0 mm 6 mps 759 mmHg 36%
    07:00 +22°C° 0 mm 6 mps 759 mmHg 33%
    08:00 +24°C° 0 mm 7 mps 759 mmHg 30%
    09:00 +26°C° 0 mm 8 mps 759 mmHg 27%
    10:00 +27°C° 0 mm 8 mps 758 mmHg 25%
    11:00 +29°C° 0 mm 7 mps 758 mmHg 23%
    12:00 +30°C° 0 mm 7 mps 758 mmHg 22%
    13:00 +30°C° 0 mm 7 mps 757 mmHg 21%
    14:00 +30°C° 0 mm 7 mps 757 mmHg 20%
    15:00 +32°C° 0 mm 7 mps 757 mmHg 19%
    16:00 +30°C° 0 mm 7 mps 757 mmHg 20%
    17:00 +30°C° 0 mm 6 mps 756 mmHg 21%
    18:00 +29°C° 0 mm 6 mps 756 mmHg 21%
    19:00 +28°C° 0 mm 6 mps 756 mmHg 25%
    20:00 +26°C° 0 mm 6 mps 757 mmHg 29%
    21:00 +25°C° 0 mm 5 mps 757 mmHg 33%
    22:00 +23°C° 0 mm 5 mps 757 mmHg 38%
    23:00 +22°C° 0 mm 5 mps 757 mmHg 42%

    25 August, Saturday

    Time Temperature Precipitation Wind Pressure Humidity
    00:00 +22°C° 0 mm 5 mps 756 mmHg 46%
    01:00 +21°C° 0 mm 5 mps 756 mmHg 48%
    02:00 +20°C° 0 mm 5 mps 756 mmHg 50%
    03:00 +20°C° 0 mm 5 mps 756 mmHg 53%
    04:00 +20°C° 0 mm 5 mps 756 mmHg 54%
    05:00 +19°C° 0 mm 5 mps 756 mmHg 55%
    06:00 +19°C° 0 mm 5 mps 757 mmHg 56%
    07:00 +21°C° 0 mm 6 mps 757 mmHg 52%
    08:00 +22°C° 0 mm 6 mps 757 mmHg 47%
    09:00 +24°C° 0 mm 7 mps 757 mmHg 42%
    10:00 +26°C° 0 mm 7 mps 757 mmHg 38%
    11:00 +28°C° 0 mm 7 mps 756 mmHg 35%
    12:00 +29°C° 0 mm 7 mps 756 mmHg 31%
    13:00 +30°C° 0 mm 7 mps 756 mmHg 29%
    14:00 +32°C° 0 mm 7 mps 755 mmHg 27%
    15:00 +32°C° 0 mm 7 mps 755 mmHg 25%
    16:00 +32°C° 0 mm 7 mps 755 mmHg 26%
    17:00 +30°C° 0 mm 7 mps 755 mmHg 27%
    18:00 +29°C° 0 mm 7 mps 755 mmHg 27%
    19:00 +28°C° 0 mm 7 mps 755 mmHg 29%
    20:00 +27°C° 0 mm 7 mps 755 mmHg 30%
    21:00 +26°C° 0 mm 6 mps 756 mmHg 31%
    22:00 +24°C° 0 mm 6 mps 756 mmHg 34%
    23:00 +23°C° 0 mm 6 mps 756 mmHg 36%

    26 August, Sunday

    Time Temperature Precipitation Wind Pressure Humidity
    00:00 +22°C° 0 mm 6 mps 755 mmHg 38%
    01:00 +22°C° 0 mm 5 mps 755 mmHg 41%
    02:00 +21°C° 0 mm 5 mps 755 mmHg 43%
    03:00 +21°C° 0 mm 5 mps 755 mmHg 46%
    04:00 +20°C° 0 mm 5 mps 755 mmHg 48%
    05:00 +20°C° 0 mm 5 mps 755 mmHg 50%
    06:00 +20°C° 0 mm 5 mps 755 mmHg 52%
    07:00 +22°C° 0 mm 7 mps 755 mmHg 47%
    08:00 +24°C° 0 mm 8 mps 755 mmHg 42%
    09:00 +28°C° 0 mm 9 mps 755 mmHg 36%
    10:00 +29°C° 0 mm 9 mps 755 mmHg 33%
    11:00 +31°C° 0 mm 10 mps 755 mmHg 30%
    12:00 +33°C° 0 mm 10 mps 754 mmHg 27%
    13:00 +33°C° 0 mm 10 mps 754 mmHg 26%
    14:00 +33°C° 0 mm 10 mps 754 mmHg 26%
    15:00 +34°C° 0 mm 10 mps 753 mmHg 26%
    16:00 +33°C° 0 mm 9 mps 753 mmHg 28%
    17:00 +32°C° 0 mm 9 mps 753 mmHg 30%
    18:00 +31°C° 0 mm 9 mps 753 mmHg 32%
    19:00 +29°C° 0 mm 8 mps 753 mmHg 35%
    20:00 +27°C° 0 mm 7 mps 754 mmHg 39%
    21:00 +26°C° 0 mm 7 mps 754 mmHg 43%
    22:00 +24°C° 0 mm 7 mps 754 mmHg 46%
    23:00 +24°C° 0 mm 7 mps 753 mmHg 49%

    27 August, Monday

    Time Temperature Precipitation Wind Pressure Humidity
    00:00 +23°C° 0 mm 6 mps 753 mmHg 52%
    01:00 +22°C° 0 mm 6 mps 753 mmHg 53%
    02:00 +22°C° 0 mm 6 mps 753 mmHg 53%
    03:00 +22°C° 0 mm 6 mps 753 mmHg 53%
    04:00 +21°C° 0 mm 6 mps 753 mmHg 53%
    05:00 +21°C° 0 mm 6 mps 753 mmHg 54%
    06:00 +21°C° 0 mm 6 mps 753 mmHg 54%
    07:00 +23°C° 0 mm 7 mps 753 mmHg 49%
    08:00 +26°C° 0 mm 8 mps 753 mmHg 44%
    09:00 +28°C° 0 mm 8 mps 753 mmHg 39%
    10:00 +31°C° 0 mm 8 mps 753 mmHg 35%
    11:00 +33°C° 0 mm 9 mps 752 mmHg 31%
    12:00 +34°C° 0 mm 9 mps 752 mmHg 27%
    13:00 +35°C° 0 mm 9 mps 752 mmHg 27%
    14:00 +35°C° 0 mm 9 mps 752 mmHg 26%
    15:00 +35°C° 0 mm 9 mps 752 mmHg 26%
    16:00 +35°C° 0 mm 9 mps 752 mmHg 27%
    17:00 +34°C° 0 mm 8 mps 752 mmHg 29%
    18:00 +33°C° 0 mm 8 mps 752 mmHg 31%
    19:00 +32°C° 0 mm 7 mps 752 mmHg 34%
    20:00 +29°C° 0 mm 7 mps 752 mmHg 36%
    21:00 +28°C° 0 mm 7 mps 753 mmHg 39%
    22:00 +27°C° 0 mm 7 mps 753 mmHg 41%
    23:00 +26°C° 0 mm 7 mps 753 mmHg 42%
    Show more